Regional Weather Roundup
Issued by NWS Austin/San Antonio, TX

Current Version | Previous Version | Text Only | Print | Product List | Glossary On
Versions: 1 2 3 4 5 6 7 8 9 10 11 12 13 14 15 16 17 18 19 20 21 22 23 24 25 26 27 28 29 30 31 32 33 34 35 36 37 38 39 40 41 42 43 44 45 46 47 48 49 50
000
ASUS44 KEWX 171501
RWREWX
SOUTH TEXAS REGIONAL WEATHER ROUNDUP
NATIONAL WEATHER SERVICE AUSTIN/SAN ANTONIO TX
1000 AM CDT THU JUN 17 2021

NOTE: "FAIR" INDICATED FEW OR NO CLOUDS BELOW 12,000 FEET WITH NO
SIGNIFICANT WEATHER AND/OR OBSTRUCTIONS TO VISIBILITY.

* - THESE STATIONS ARE NOT NWS OR FAA STATIONS...AND ARE NOT SUBJECT
    TO NWS AND FAA QUALITY CONTROL.

TXZ171-172-183>190-171600-
TEXAS HILL COUNTRY AND EDWARDS PLATEAU

CITY           SKY/WX    TMP DP  RH WIND       PRES   REMARKS
JUNCTION       SUNNY     82  65  56 CALM      30.11R
*LLANO         SUNNY     82  68  61 CALM      30.07S
BURNET         SUNNY     86  69  56 E6        30.09S HX  90
*HORSESHOE BAY SUNNY     83  69  62 W3        30.08S
*LAGO VISTA    SUNNY     89  70  53 NE5       30.08S HX  95
*KERRVILLE     SUNNY     80  71  73 CALM      30.10R
*FREDERICKSBRG SUNNY     79  67  65 CALM      30.10R
*ROCKSPRINGS     N/A     81  64  57 MISG      30.17R
*BOERNE        SUNNY     81  68  65 NE3       30.07S
*CASTROVILLE   SUNNY     88  68  52 E6        30.05S HX  92
HONDO          SUNNY     85  70  60 E5        30.05R
*UVALDE        SUNNY     83  70  65 CALM      30.06S
DEL RIO        SUNNY     88  66  48 VRB3      30.04R HX  90
*LAUGHLIN AFB  SUNNY     85  65  52 CALM      30.05R
*SPOFFORD      SUNNY     85  66  53 CALM      29.99R
*EAGLE PASS    SUNNY     86  66  51 CALM      30.03S
CARRIZO SPRGS  SUNNY    N/A N/A N/A NE3       30.01F
$$

TXZ173-191>194-202-209-217>225-228-171600-
CENTRAL AND SOUTH CENTRAL TEXAS

CITY           SKY/WX    TMP DP  RH WIND       PRES   REMARKS
GEORGETOWN     SUNNY     88  71  57 N5        30.06F HX  94
*TAYLOR        SUNNY     89  73  59 N6        30.03F HX  97
AUSTIN/BERGSTM SUNNY     87  71  58 NE5       30.02S HX  93
AUSTIN/MABRY   SUNNY     89  70  53 NW3       30.04S HX  94
*PFLUGERVILLE  SUNNY     86  70  58 CALM      30.02S HX  90
SAN MARCOS     SUNNY     88  72  58 CALM      30.04S HX  94
NEW BRAUNFELS  SUNNY     88  70  55 E6        30.02S HX  93
*RANDOLPH AFB  SUNNY     87  70  57 NE6       30.02S HX  91
*SEGUIN        SUNNY     85  71  63 E3        30.06F HX  90
SAN ANTONIO    SUNNY     86  71  60 NE6       30.04S HX  91
STINSON FIELD  MOSUNNY   90  72  55 SE5       30.01R HX  97
*KELLY FIELD   SUNNY     87  71  58 NE7       30.02R HX  92
*PLEASANTON    SUNNY     87  72  61 NE3       30.03S HX  94
*KENEDY        SUNNY     86  72  64 NE7       30.02S HX  92
*LA GRANGE     SUNNY     87  77  71 CALM      30.00S HX  98
*GIDDINGS      SUNNY     86  73  63 NW3       30.03S HX  93
*GONZALES      SUNNY     87  73  64 CALM      30.02S HX  94
$$

TXZ163>164-176>182-195>201-210>213-226-227-235-171600-
SOUTHEAST TEXAS

CITY           SKY/WX    TMP DP  RH WIND       PRES   REMARKS
COLLEGE STN    SUNNY     89  72  56 CALM      30.02R HX  96
*BRYAN         SUNNY     88  74  63 N3        30.03S HX  96
*CALDWELL      SUNNY     87  74  65 N5        30.03R HX  94
*CROCKETT      SUNNY     84  70  61 E7        30.02F
*BRENHAM       SUNNY     89  76  66 CALM      30.02S HX  99
HUNTSVILLE     SUNNY     86  73  65 CALM      30.02F HX  93
CONROE         SUNNY     85  70  60 E6        30.02S
HOUSTON BUSH   MOSUNNY   87  68  52 E10       30.01R HX  90
HOUSTON HOBBY  MOSUNNY   90  69  50 E14       29.99S HX  94
*HOUSTON SW AP SUNNY     88  73  61 NE8       30.01S HX  95
PEARLAND       SUNNY     88  73  61 E9        30.01S HX  95
HOUSTON HOOKS  SUNNY     87  71  58 NE7       30.01S HX  93
ELLINGTON FLD  SUNNY     86  68  54 NE12      29.99S
SUGAR LAND     SUNNY     89  74  60 NE10      30.00S HX  98
*HOUSTON EXEC  NOT AVBL
*CLEVELAND MUN SUNNY     84  68  57 CALM      30.03R
*WHARTON       SUNNY     85  72  64 NE6       30.01S HX  91
*COLUMBUS      FAIR      86  75  68 NE3       30.02S HX  94
*EAGLE LAKE    NOT AVBL
$$

TXZ214>216-236>238-171600-
THE UPPER TEXAS COAST

CITY           SKY/WX    TMP DP  RH WIND       PRES   REMARKS
*ORANGE        SUNNY     85  63  46 CALM      30.02S
PORT ARTHUR    SUNNY     85  67  54 E12       29.99S
GALVESTON      SUNNY     89  71  55 NE13      29.99S HX  95
ANGLETON       SUNNY     87  73  62 NE9       29.99S HX  94
*BAY CITY      SUNNY     86  76  73 NE7       29.99S HX  96
PALACIOS       SUNNY     87  76  69 N12       29.98S HX  97
$$

TXZ229>234-239>247-171600-
TEXAS COASTAL BEND AND RIO GRANDE PLAINS

CITY           SKY/WX    TMP DP  RH WIND       PRES   REMARKS
VICTORIA       SUNNY     87  75  67 NE6       30.00S HX  96
*BEEVILLE      SUNNY     85  78  80 NE6       30.00S HX  97
ROCKPORT       SUNNY     86  77  74 NE9       29.98R HX  97
*PORT ARANSAS  MOSUNNY   85  77  75 NE14      30.00S HX  95
*PORT LAVACA   SUNNY     87  76  69 NE8       29.99S HX  97
*INGLESIDE     MOSUNNY   86  77  74 NE10      29.98R HX  97
CORPUS CHRISTI MOSUNNY   86  76  71 NE12      29.99R HX  96
CORPUS NAS     PTSUNNY   86  76  71 NE14      29.98R HX  96
*ROBSTOWN      SUNNY     87  77  72 NE8       29.99F HX  99
ALICE          SUNNY     85  74  69 NE9       30.00R HX  92
KINGSVILLE NAS MOSUNNY   87  75  67 NE9       29.98S HX  96
COTULLA        SUNNY     86  69  56 SE5       30.01S HX  90
LAREDO         SUNNY     85  71  63 E5        30.02R HX  90
$$

TXZ248>255-171600-
DEEP SOUTH TEXAS

CITY           SKY/WX    TMP DP  RH WIND       PRES   REMARKS
BROWNSVILLE    MOSUNNY   85  75  72 NE9       29.96R HX  93
PORT ISABEL    MOSUNNY   87  74  64 N14G22    29.96R HX  95
HARLINGEN      MOSUNNY   84  78  82 N10       29.97R HX  95
*HEBBRONVILLE  SUNNY     82  63  53 NE8       30.03S
MCALLEN        SUNNY     85  73  67 NE12      29.98R HX  91
*WESLACO       MOSUNNY   84  74  72 NE9       29.97R HX  91
FALFURRIAS     MOSUNNY   81  73  77 NE8       30.00R
EDINBURG       MOSUNNY   84  76  76 NE8       29.99R HX  93
*ZAPATA        MOSUNNY   87  71  58 E3        30.02S HX  92
$$

TXZ213>215-236>238-242>244-246-247-251-254-255-171600-
CMAN STATIONS

STATION/POSITION TIME  TEMP    WIND        PRES    WAVE
                       AIR SEA DIR/SP/G            HT/PER
                 (UTC) (F)     (DEG/KT/KT) (MB)    (FT/S)
NORTH JETTY/GLS  1430   83 85   70/ 12/ 16 1014.4
EAGLE POINT      1430   84 87   70/ 12/ 15 1015.3
MORGANS POINT    1430   84 85   70/ 10/ 12 1015.9
MISSION/ARANSAS  1400   80     350/  9     1016.0
PORT O`CONNOR    1430   81 88   20/ 11/ 12 1015.1
PORT ARANSAS     1400   82 85   10/ 12/ 14   N/A
MALAQUITE BEACH  1430   83     360/ 16/ 17   N/A
BAFFIN BAY       1430   83 88   10/ 12/ 16 1014.6
PORT ISABEL      1430   84 85   10/ 13/ 15 1015.1
$$



USA.gov is the U.S. government's official web portal to all federal, state and local government web resources and services.